Pecs, Hungary

12:37 AM CEST on August 31, 2016 (GMT +0200)
Pecs

Weather History for LHPP - February, 2014

Change the Weather History Date:

Thursday, February 27, 2014

  Actual Average Record
Temperature  
Mean Temperature 44 °F -  
Max Temperature 55 °F 50 °F - ()
Min Temperature 34 °F 34 °F - ()
Degree Days  
Heating Degree Days 20    
Moisture  
Dew Point 38 °F    
Average Humidity 77    
Maximum Humidity 93    
Minimum Humidity 45    
Precipitation  
Precipitation 0.00 in 0.05 in - ()
Sea Level Pressure  
Sea Level Pressure 30.13 in    
Wind  
Wind Speed 4 mph ()    
Max Wind Speed 7 mph    
Max Gust Speed -    
Visibility 8.5 miles    
Events      
T = Trace of Precipitation, MM = Missing Value Source: Averaged Metar Reports

Daily Weather History Graph

Daily Weather History Graph

Search for Another Location

Airport or City:

Trip Planner

Search our weather history database for the weather conditions in past years. The results will help you decide how hot, cold, wet, or windy it might be!

Date:

Astronomy

Feb. 27, 2014 Rise Set
Actual Time 6:29 AM CET 5:30 PM CET
Civil Twilight 5:59 AM CET 6:00 PM CET
Nautical Twilight 5:25 AM CET 6:35 PM CET
Astronomical Twilight 4:50 AM CET 7:09 PM CET
Moon 4:54 AM CET (2/27) 3:30 PM CET (2/27)
Length of Visible Light 12h 00m
Length of Day
11h 00m
Waning Crescent, 5% of the Moon is Illuminated
Feb 27
Waning Crescent
Mar 1
New
Mar 8
First Quarter
Mar 16
Full
Mar 24
Last Quarter

Hourly Weather History & Observations

Time (CET) Temp. Windchill Dew Point Humidity Pressure Visibility Wind Dir Wind Speed Gust Speed Precip Events Conditions
12:00 AM 42 °F - 36 °F 71% 30.19 in 9 mi SSE 2.2 mph - -   Partly Cloudy
12:45 AM 37.4 °F 33.8 °F 33.8 °F 87% 30.18 in 6.2 mi ESE 4.6 mph - N/A   Partly Cloudy
1:00 AM 38 °F - 35 °F 82% 30.20 in 9 mi ESE 4.5 mph - -   Partly Cloudy
1:45 AM 37.4 °F 32.1 °F 33.8 °F 87% 30.15 in 6.2 mi ESE 6.9 mph - N/A   Scattered Clouds
2:00 AM 38 °F - 34 °F 80% 30.19 in 9 mi ESE 6.7 mph - -   Partly Cloudy
2:45 AM 37.4 °F 32.1 °F 33.8 °F 87% 30.15 in - East 6.9 mph - N/A   Clear
3:00 AM 37 °F - 33 °F 82% 30.19 in 9 mi East 6.7 mph - -   Partly Cloudy
3:45 AM 37.4 °F - 33.8 °F 87% 30.15 in - North 2.3 mph - N/A   Clear
4:00 AM 37 °F - 33 °F 81% 30.19 in 9 mi North 2.2 mph - -   Partly Cloudy
4:45 AM 37.4 °F 33.8 °F 32.0 °F 81% 30.15 in - ENE 4.6 mph - N/A   Clear
5:00 AM 36 °F - 33 °F 83% 30.19 in 9 mi ENE 4.5 mph - -   Partly Cloudy
5:15 AM 35.6 °F 31.7 °F 32.0 °F 87% 30.15 in - ENE 4.6 mph - N/A   Clear
5:45 AM 35.6 °F 32.8 °F 32.0 °F 87% 30.15 in - ENE 3.5 mph - N/A   Clear
6:00 AM 35 °F - 32 °F 84% 30.19 in 9 mi ENE 4.5 mph - -   Partly Cloudy
6:00 AM - - - N/A% - - Variable 3.5 mph - N/A   Clear
6:15 AM 35.6 °F 31.7 °F 32.0 °F 87% 30.15 in - East 4.6 mph - N/A   Clear
6:45 AM 35.6 °F 31.7 °F 33.8 °F 93% 30.15 in - East 4.6 mph - N/A   Clear
7:00 AM 36 °F - 33 °F 84% 30.19 in 7 mi East 4.5 mph - -   Partly Cloudy
7:15 AM 37.4 °F 32.8 °F 33.8 °F 87% 30.15 in - ENE 5.8 mph - N/A   Clear
7:45 AM 37.4 °F 34.9 °F 33.8 °F 87% 30.18 in - ENE 3.5 mph - N/A   Clear
8:00 AM 37 °F - 34 °F 85% 30.20 in 7 mi ENE 4.5 mph - -   Partly Cloudy
8:15 AM 39.2 °F - 35.6 °F 87% 30.18 in - East 2.3 mph - N/A   Clear
8:45 AM 41.0 °F 39.0 °F 35.6 °F 81% 30.18 in - ENE 3.5 mph - N/A   Clear
9:00 AM 40 °F - 36 °F 82% 30.20 in 7 mi ENE 4.5 mph - -   Partly Cloudy
9:00 AM - - - N/A% - - Variable 3.5 mph - N/A   Clear
9:15 AM 41.0 °F 39.0 °F 37.4 °F 87% 30.18 in - East 3.5 mph - N/A   Clear
9:45 AM 41.0 °F 38.0 °F 37.4 °F 87% 30.18 in - ENE 4.6 mph - N/A   Clear
10:00 AM 42 °F - 38 °F 79% 30.20 in 7 mi ENE 4.5 mph - -   Partly Cloudy
10:15 AM 42.8 °F 41.1 °F 39.2 °F 87% 30.18 in - ENE 3.5 mph - N/A   Clear
10:45 AM 44.6 °F 42.2 °F 39.2 °F 81% 30.15 in - ESE 4.6 mph - N/A   Clear
11:00 AM 45 °F - 40 °F 75% 30.18 in 7 mi ESE 4.5 mph - -   Partly Cloudy
11:15 AM 46.4 °F 45.2 °F 39.2 °F 76% 30.15 in - ESE 3.5 mph - N/A   Clear
11:45 AM 48.2 °F - 41.0 °F 76% 30.15 in - SE 1.2 mph - N/A   Clear
12:00 PM 48 °F - 40 °F 67% 30.17 in 9 mi SE 2.2 mph - -   Partly Cloudy
12:00 PM - - - N/A% - - Variable 3.5 mph - N/A   Dust Whirls
12:15 PM 50.0 °F - 41.0 °F 71% 30.15 in - SSE 3.5 mph - N/A   Clear
12:45 PM 53.6 °F - 41.0 °F 62% 30.15 in - South 5.8 mph - N/A   Clear
1:00 PM 53 °F - 42 °F 56% 30.14 in 9 mi South 4.5 mph - -   Partly Cloudy
1:15 PM 55.4 °F - 41.0 °F 58% 30.12 in - South 6.9 mph - N/A   Clear
1:45 PM 53.6 °F - 41.0 °F 62% 30.12 in - SSE 6.9 mph - N/A   Clear
2:00 PM 54 °F - 41 °F 50% 30.12 in 9 mi SSE 6.7 mph - -   Partly Cloudy
2:15 PM 55.4 °F - 41.0 °F 58% 30.12 in - SSE 5.8 mph - N/A   Clear
2:45 PM 55.4 °F - 39.2 °F 54% 30.09 in - South 5.8 mph - N/A   Clear
3:00 PM 55 °F - 40 °F 45% 30.11 in 12 mi South 4.5 mph - -   Partly Cloudy
3:00 PM - - - N/A% - - SSE 5.8 mph - N/A   Clear
3:15 PM 53.6 °F - 39.2 °F 58% 30.09 in - SSE 6.9 mph - N/A   Clear
3:45 PM 55.4 °F - 41.0 °F 58% 30.09 in - SSE 6.9 mph - N/A   Clear
4:00 PM 55 °F - 41 °F 48% 30.09 in 12 mi SSE 6.7 mph - -   Partly Cloudy
4:15 PM 53.6 °F - 42.8 °F 67% 30.06 in - SSE 6.9 mph - N/A   Clear
4:45 PM 51.8 °F - 42.8 °F 71% 30.06 in - SSE 5.8 mph - N/A   Clear
5:00 PM 52 °F - 43 °F 64% 30.08 in 9 mi SSE 6.7 mph - -   Partly Cloudy
5:15 PM 50.0 °F - 42.8 °F 76% 30.06 in - SE 6.9 mph - N/A   Clear
5:45 PM 48.2 °F - 42.8 °F 82% 30.06 in - East 5.8 mph - N/A   Clear
6:00 PM 48 °F - 42 °F 74% 30.08 in 9 mi East 4.5 mph - -   Partly Cloudy
6:15 PM 46.4 °F 44.3 °F 41.0 °F 81% 30.06 in - ESE 4.6 mph - N/A   Clear
6:45 PM 44.6 °F 42.2 °F 41.0 °F 87% 30.06 in - ESE 4.6 mph - N/A   Clear
7:00 PM 45 °F - 42 °F 83% 30.08 in 9 mi ESE 4.5 mph - -   Partly Cloudy
7:15 PM 48.2 °F - 41.0 °F 76% 30.06 in - South 5.8 mph - N/A   Clear
7:45 PM 46.4 °F 42.9 °F 42.8 °F 87% 30.06 in - West 6.9 mph - N/A   Clear
8:00 PM 46 °F - 42 °F 82% 30.09 in 9 mi West 6.7 mph - -   Partly Cloudy
8:15 PM 44.6 °F 43.1 °F 41.0 °F 87% 30.06 in - West 3.5 mph - N/A   Clear
8:45 PM 44.6 °F 42.2 °F 41.0 °F 87% 30.06 in - WSW 4.6 mph - N/A   Clear
9:00 PM 45 °F - 41 °F 80% 30.08 in 9 mi WSW 4.5 mph - -   Partly Cloudy
9:45 PM 44.6 °F - 41.0 °F 87% 30.06 in - West 1.2 mph - N/A   Clear
10:00 PM 44 °F - 41 °F 84% 30.07 in 9 mi West 2.2 mph - -   Partly Cloudy
10:45 PM 44.6 °F - 41.0 °F 87% 30.04 in - Calm Calm - N/A   Clear
11:00 PM 44 °F - 41 °F 83% 30.06 in 9 mi Calm Calm - -   Partly Cloudy
11:45 PM 42.8 °F - 41.0 °F 93% 30.04 in 6.2 mi Calm Calm - N/A   Mostly Cloudy